Medicine Lodge, KS

9:52 PM CDT on May 22, 2017 (GMT -0500)
Medicine Lodge

Weather History for KP28 - June, 2013

Change the Weather History Date:

Monday, June 3, 2013

  Actual Average Record
Temperature  
Mean Temperature 72 °F 73 °F  
Max Temperature 90 °F 85 °F 99 °F (2011)
Min Temperature 53 °F 61 °F 40 °F (1897)
Degree Days  
Heating Degree Days 0 0  
Month to date heating degree days 3 0  
Since 1 June heating degree days 3 0  
Since 1 July heating degree days 4522 4455  
Cooling Degree Days 7 8  
Month to date cooling degree days 7 24  
Year to date cooling degree days 150 180  
Since 1 June cooling degree days 7 24  
Growing Degree Days 20 (Base 50)    
Moisture  
Dew Point 54 °F    
Average Humidity 65    
Maximum Humidity 93    
Minimum Humidity 37    
Precipitation  
Precipitation 0.00 in 0.15 in 2.61 in (1950)
Month to date precipitation 0.01 0.44  
Year to date precipitation 10.36 10.18  
Snow  
Snow 0.00 in 0.00 in - ()
Month to date snowfall 0.0 0.0  
Since 1 June snowfall 0.0 0.0  
Since 1 July snowfall 25.0 8.5  
Snow Depth 0.00 in    
Sea Level Pressure  
Sea Level Pressure 29.85 in    
Wind  
Wind Speed 14 mph (SSE)    
Max Wind Speed 40 mph    
Max Gust Speed 56 mph    
T = Trace of Precipitation, MM = Missing Value Source: NWS Daily Summary

Daily Weather History Graph

Daily Weather History Graph

Search for Another Location

Airport or City:

Trip Planner

Search our weather history database for the weather conditions in past years. The results will help you decide how hot, cold, wet, or windy it might be!

Date:

Astronomy

Jun. 03, 2013 Rise Set
Actual Time 6:14 AM CDT 8:50 PM CDT
Civil Twilight 5:44 AM CDT 9:21 PM CDT
Nautical Twilight 5:06 AM CDT 9:59 PM CDT
Astronomical Twilight 4:23 AM CDT 10:41 PM CDT
Moon 3:07 AM CDT (6/3) 4:27 PM CDT (6/3)
Length of Visible Light 15h 37m
Length of Day
14h 36m
Waning Crescent, 22% of the Moon is Illuminated
Jun 3
Waning Crescent
Jun 8
New
Jun 16
First Quarter
Jun 23
Full
Jun 29
Last Quarter

Hourly Weather History & Observations

Time (CDT) Temp. Heat Index Dew Point Humidity Pressure Visibility Wind Dir Wind Speed Gust Speed Precip Events Conditions
12:56 AM 55.9 °F - 48.0 °F 75% 29.99 in - SE 6.9 mph - N/A   Unknown
1:56 AM 55.9 °F - 50.0 °F 80% 29.97 in - SE 8.1 mph - N/A   Unknown
2:56 AM 54.0 °F - 51.1 °F 90% 29.98 in - SE 9.2 mph - N/A   Unknown
3:56 AM 54.0 °F - 52.0 °F 93% 29.96 in - ESE 6.9 mph - N/A   Unknown
4:56 AM 54.0 °F - 52.0 °F 93% 29.96 in - SE 8.1 mph - N/A   Unknown
5:56 AM 53.1 °F - 52.0 °F 96% 29.96 in - ESE 8.1 mph - N/A   Unknown
6:56 AM 53.1 °F - 51.1 °F 93% 29.98 in - SE 5.8 mph - N/A   Unknown
7:56 AM 55.0 °F - 52.0 °F 89% 29.97 in - SE 10.4 mph - N/A   Unknown
8:56 AM 59.0 °F - 53.1 °F 81% 29.99 in - SSE 9.2 mph 18.4 mph N/A   Unknown
9:56 AM 64.0 °F - 55.0 °F 73% 29.96 in - SSE 11.5 mph - N/A   Unknown
10:56 AM 66.9 °F - 55.0 °F 66% 29.92 in - SSE 12.7 mph 21.9 mph N/A   Unknown
11:56 AM 73.0 °F - 55.0 °F 53% 29.88 in - SSE 16.1 mph 23.0 mph N/A   Unknown
12:56 PM 78.1 °F - 53.1 °F 42% 29.84 in - South 17.3 mph 31.1 mph N/A   Unknown
1:56 PM 80.1 °F 80.0 °F 54.0 °F 40% 29.81 in - South 17.3 mph 32.2 mph N/A   Unknown
2:56 PM 82.9 °F 82.1 °F 55.9 °F 39% 29.78 in - South 15.0 mph 31.1 mph N/A   Unknown
3:56 PM 84.9 °F 83.7 °F 55.9 °F 37% 29.75 in - South 18.4 mph 31.1 mph N/A   Unknown
4:56 PM 86.0 °F 84.9 °F 57.0 °F 37% 29.73 in - South 20.7 mph 27.6 mph N/A   Unknown
5:56 PM 82.9 °F 82.8 °F 59.0 °F 44% 29.73 in - SSE 13.8 mph 21.9 mph N/A   Unknown
6:56 PM 81.0 °F 81.3 °F 59.0 °F 47% 29.73 in - SSE 11.5 mph 19.6 mph N/A   Unknown
7:56 PM 79.0 °F - 59.0 °F 50% 29.69 in - SSE 16.1 mph 24.2 mph N/A   Unknown
8:56 PM 77.0 °F - 57.0 °F 50% 29.73 in - SSE 12.7 mph 24.2 mph N/A   Unknown
9:56 PM 75.9 °F - 57.0 °F 52% 29.73 in - South 16.1 mph 32.2 mph N/A   Unknown
10:56 PM 78.1 °F - 53.1 °F 42% 29.78 in - South 18.4 mph 55.2 mph N/A   Squalls
11:06 PM 75.9 °F - 54.0 °F 46% 29.82 in - South 23.0 mph 28.8 mph N/A   Unknown
11:56 PM 75.0 °F - 53.1 °F 46% 29.72 in - SSW 24.2 mph 34.5 mph N/A   Unknown